Grafton, ND

12:21 AM CDT on March 24, 2017 (GMT -0500)
Grafton Municipal

Weather History for KGAF - July, 2013

Change the Weather History Date:

Saturday, July 20, 2013

  Actual Average Record
Temperature  
Mean Temperature 59 °F -  
Max Temperature 68 °F 82 °F 96 °F (1960)
Min Temperature 50 °F 57 °F 47 °F (1970)
Degree Days  
Heating Degree Days 6    
Growing Degree Days 9 (Base 50)    
Moisture  
Dew Point 46 °F    
Average Humidity 63    
Maximum Humidity 87    
Minimum Humidity 46    
Precipitation  
Precipitation 0.00 in - - ()
Sea Level Pressure  
Sea Level Pressure 30.01 in    
Wind  
Wind Speed 9 mph (North)    
Max Wind Speed 13 mph    
Max Gust Speed 18 mph    
Visibility 10 miles    
Events      
Averages and records for this station are not official NWS values.
T = Trace of Precipitation, MM = Missing Value Source: NWS Daily Summary

Daily Weather History Graph

Daily Weather History Graph

Search for Another Location

Airport or City:

Trip Planner

Search our weather history database for the weather conditions in past years. The results will help you decide how hot, cold, wet, or windy it might be!

Date:

Astronomy

Jul. 20, 2013 Rise Set
Actual Time 5:49 AM CDT 9:21 PM CDT
Civil Twilight 5:10 AM CDT 9:59 PM CDT
Nautical Twilight 4:18 AM CDT 10:51 PM CDT
Astronomical Twilight 3:07 AM CDT 12:01 AM CDT
Moon 7:24 PM CDT (7/20) 3:31 AM CDT (7/20)
Length of Visible Light 16h 49m
Length of Day
15h 31m
Waxing Gibbous, 94% of the Moon is Illuminated
Jul 20
Waxing Gibbous
Jul 22
Full
Jul 29
Last Quarter
Aug 6
New
Aug 14
First Quarter

Hourly Weather History & Observations

Time (CDT) Temp. Dew Point Humidity Pressure Visibility Wind Dir Wind Speed Gust Speed Precip Events Conditions
12:15 AM 59.0 °F 50.0 °F 72% 29.96 in 10.0 mi NNE 11.5 mph - N/A   Overcast
12:35 AM 59.0 °F 46.4 °F 63% 29.96 in 10.0 mi NNE 12.7 mph - N/A   Overcast
12:55 AM 59.0 °F 44.6 °F 59% 29.98 in 10.0 mi NNE 11.5 mph - N/A   Mostly Cloudy
1:15 AM 59.0 °F 44.6 °F 59% 29.98 in 10.0 mi North 12.7 mph 16.1 mph N/A   Mostly Cloudy
1:35 AM 57.2 °F 44.6 °F 63% 29.98 in 10.0 mi NNE 11.5 mph 18.4 mph N/A   Overcast
1:55 AM 57.2 °F 46.4 °F 67% 29.98 in 10.0 mi North 11.5 mph - N/A   Mostly Cloudy
2:15 AM 57.2 °F 44.6 °F 63% 29.98 in 10.0 mi North 9.2 mph - N/A   Mostly Cloudy
2:35 AM 55.4 °F 44.6 °F 67% 29.98 in 10.0 mi NNE 9.2 mph - N/A   Mostly Cloudy
2:55 AM 55.4 °F 44.6 °F 67% 29.98 in 10.0 mi North 6.9 mph - N/A   Partly Cloudy
3:15 AM 53.6 °F 46.4 °F 77% 29.99 in 10.0 mi North 5.8 mph - N/A   Scattered Clouds
3:35 AM 55.4 °F 46.4 °F 72% 29.98 in 10.0 mi North 9.2 mph - N/A   Mostly Cloudy
3:55 AM 55.4 °F 46.4 °F 72% 29.98 in 10.0 mi North 12.7 mph - N/A   Overcast
4:15 AM 53.6 °F 46.4 °F 77% 29.99 in 10.0 mi North 9.2 mph - N/A   Mostly Cloudy
4:35 AM 51.8 °F 46.4 °F 82% 30.00 in 10.0 mi North 6.9 mph - N/A   Partly Cloudy
4:55 AM 50.0 °F 46.4 °F 87% 30.00 in 10.0 mi North 8.1 mph - N/A   Partly Cloudy
5:15 AM 50.0 °F 46.4 °F 87% 30.01 in 10.0 mi North 9.2 mph - N/A   Mostly Cloudy
5:35 AM 50.0 °F 46.4 °F 87% 30.01 in 10.0 mi North 9.2 mph - N/A   Overcast
5:55 AM 50.0 °F 46.4 °F 87% 30.02 in 10.0 mi North 6.9 mph - N/A   Mostly Cloudy
6:15 AM 50.0 °F 46.4 °F 87% 30.03 in 10.0 mi North 4.6 mph - N/A   Mostly Cloudy
6:35 AM 50.0 °F 46.4 °F 87% 30.03 in 10.0 mi North 5.8 mph - N/A   Partly Cloudy
6:55 AM 50.0 °F 46.4 °F 87% 30.04 in 10.0 mi North 6.9 mph - N/A   Partly Cloudy
7:15 AM 50.0 °F 46.4 °F 87% 30.04 in 10.0 mi North 8.1 mph - N/A   Mostly Cloudy
7:35 AM 51.8 °F 46.4 °F 82% 30.04 in 10.0 mi NNE 8.1 mph - N/A   Overcast
7:55 AM 53.6 °F 48.2 °F 82% 30.04 in 10.0 mi North 6.9 mph - N/A   Overcast
8:15 AM 53.6 °F 46.4 °F 77% 30.05 in 10.0 mi NNE 10.4 mph - N/A   Overcast
8:35 AM 53.6 °F 46.4 °F 77% 30.05 in 10.0 mi NNE 9.2 mph - N/A   Overcast
8:55 AM 55.4 °F 46.4 °F 72% 30.06 in 10.0 mi NNE 9.2 mph - N/A   Mostly Cloudy
9:15 AM 57.2 °F 46.4 °F 67% 30.06 in 10.0 mi NNE 9.2 mph - N/A   Mostly Cloudy
9:35 AM 59.0 °F 48.2 °F 67% 30.07 in 10.0 mi NNE 5.8 mph - N/A   Partly Cloudy
9:55 AM 60.8 °F 48.2 °F 63% 30.07 in 10.0 mi NNE 9.2 mph - N/A   Clear
10:15 AM 62.6 °F 46.4 °F 55% 30.07 in 10.0 mi NNE 6.9 mph - N/A   Clear
10:35 AM 62.6 °F 46.4 °F 55% 30.07 in 10.0 mi NNE 9.2 mph - N/A   Clear
10:55 AM 62.6 °F 46.4 °F 55% 30.06 in 10.0 mi NNE 10.4 mph - N/A   Clear
11:15 AM 62.6 °F 44.6 °F 52% 30.06 in 10.0 mi NE 8.1 mph - N/A   Clear
11:35 AM 64.4 °F 44.6 °F 49% 30.06 in 10.0 mi NE 5.8 mph - N/A   Clear
11:55 AM 64.4 °F 44.6 °F 49% 30.06 in 10.0 mi North 8.1 mph - N/A   Partly Cloudy
12:15 PM 64.4 °F 44.6 °F 49% 30.06 in 10.0 mi North 5.8 mph - N/A   Partly Cloudy
12:35 PM 64.4 °F 44.6 °F 49% 30.05 in 10.0 mi North 6.9 mph - N/A   Partly Cloudy
12:55 PM 64.4 °F 44.6 °F 49% 30.05 in 10.0 mi North 8.1 mph - N/A   Partly Cloudy
1:15 PM 64.4 °F 46.4 °F 52% 30.04 in 10.0 mi NE 8.1 mph 16.1 mph N/A   Partly Cloudy
1:35 PM 64.4 °F 44.6 °F 49% 30.04 in 10.0 mi North 9.2 mph - N/A   Clear
1:55 PM 64.4 °F 44.6 °F 49% 30.04 in 10.0 mi NNE 9.2 mph - N/A   Clear
2:15 PM 66.2 °F 44.6 °F 46% 30.03 in 10.0 mi NNE 10.4 mph - N/A   Partly Cloudy
2:35 PM 66.2 °F 44.6 °F 46% 30.03 in 10.0 mi North 10.4 mph - N/A   Partly Cloudy
2:55 PM 66.2 °F 46.4 °F 49% 30.02 in 10.0 mi North 10.4 mph - N/A   Clear
3:15 PM 66.2 °F 46.4 °F 49% 30.02 in 10.0 mi North 9.2 mph - N/A   Partly Cloudy
3:35 PM 66.2 °F 46.4 °F 49% 30.02 in 10.0 mi North 11.5 mph - N/A   Scattered Clouds
3:55 PM 68.0 °F 46.4 °F 46% 30.02 in 10.0 mi NNE 10.4 mph - N/A   Partly Cloudy
4:15 PM 66.2 °F 46.4 °F 49% 30.02 in 10.0 mi North 8.1 mph - N/A   Clear
4:35 PM 68.0 °F 46.4 °F 46% 30.01 in 10.0 mi NNE 6.9 mph - N/A   Partly Cloudy
4:55 PM 66.2 °F 46.4 °F 49% 30.01 in 10.0 mi NNW 3.5 mph - N/A   Partly Cloudy
5:15 PM 66.2 °F 46.4 °F 49% 30.01 in 10.0 mi North 8.1 mph - N/A   Clear
5:35 PM 66.2 °F 46.4 °F 49% 30.00 in 10.0 mi NE 5.8 mph - N/A   Clear
5:55 PM 66.2 °F 46.4 °F 49% 30.00 in 10.0 mi NNW 8.1 mph - N/A   Partly Cloudy
6:15 PM 66.2 °F 48.2 °F 52% 30.00 in 10.0 mi NNE 9.2 mph - N/A   Partly Cloudy
6:35 PM 66.2 °F 46.4 °F 49% 30.00 in 10.0 mi North 6.9 mph - N/A   Partly Cloudy
6:55 PM 66.2 °F 46.4 °F 49% 30.00 in 10.0 mi North 8.1 mph - N/A   Clear
7:15 PM 66.2 °F 46.4 °F 49% 29.99 in 10.0 mi North 8.1 mph - N/A   Clear
7:35 PM 66.2 °F 46.4 °F 49% 29.99 in 10.0 mi North 6.9 mph - N/A   Clear
7:55 PM 64.4 °F 46.4 °F 52% 29.99 in 10.0 mi North 8.1 mph - N/A   Clear
8:15 PM 64.4 °F 48.2 °F 56% 29.99 in 10.0 mi North 8.1 mph - N/A   Clear
8:35 PM 64.4 °F 48.2 °F 56% 29.99 in 10.0 mi North 5.8 mph - N/A   Clear
8:55 PM 62.6 °F 48.2 °F 59% 29.99 in 10.0 mi NNW 6.9 mph - N/A   Clear
9:15 PM 60.8 °F 48.2 °F 63% 29.99 in 10.0 mi NNW 6.9 mph - N/A   Clear
9:35 PM 59.0 °F 48.2 °F 67% 29.99 in 9.0 mi NNW 6.9 mph - N/A   Clear
9:55 PM 57.2 °F 48.2 °F 72% 30.00 in 10.0 mi NNW 5.8 mph - N/A   Clear
10:15 PM 57.2 °F 48.2 °F 72% 30.00 in 10.0 mi North 6.9 mph - N/A   Clear
10:35 PM 57.2 °F 48.2 °F 72% 30.00 in 10.0 mi North 8.1 mph - N/A   Clear
10:55 PM 57.2 °F 48.2 °F 72% 30.00 in 10.0 mi North 6.9 mph - N/A   Clear
11:15 PM 55.4 °F 48.2 °F 77% 29.99 in 10.0 mi NNE 6.9 mph - N/A   Clear
11:35 PM 55.4 °F 48.2 °F 77% 29.99 in 10.0 mi NNE 6.9 mph - N/A   Clear
11:55 PM 55.4 °F 48.2 °F 77% 29.99 in 10.0 mi North 6.9 mph - N/A   Clear